Regional Weather Roundup
Issued by NWS Green Bay, WI

Home | Current Version | Previous Version | Text Only | Print | Product List | Glossary On
Versions: 1 2 3 4 5 6 7 8 9 10 11 12 13 14 15 16 17 18 19 20 21 22 23 24 25 26 27 28 29 30 31 32 33 34 35 36 37 38 39 40 41 42 43 44 45 46 47 48 49 50
000
ASUS43 KGRB 230710
RWRGRB

NORTH-CENTRAL AND NORTHEAST WISCONSIN REGIONAL WEATHER ROUNDUP
NATIONAL WEATHER SERVICE GREEN BAY WI
200 AM CDT WED APR 23 2014

WIZ005-009-010>012-018-019-230800-
NORTH CENTRAL WISCONSIN

CITY           SKY/WX    TMP DP  RH WIND       PRES   REMARKS
IRONWOOD       CLEAR     28  23  80 CALM      30.11R
MANITOWISH WTR CLEAR     24  23  94 CALM      30.12S
ARBOR VITAE    CLEAR     23  11  60 CALM      30.12S
EAGLE RIVER    CLEAR     24  24 100 CALM      30.12R
LAND O LAKES   CLEAR     22  21  96 CALM      30.13R
RHINELANDER    CLEAR     24  21  88 W3        30.13R
PHILLIPS       CLEAR     26  24  90 CALM      30.12R
ANTIGO         CLEAR     26  24  93 CALM      30.13R
TOMAHAWK       CLEAR     23  21  93 CALM      30.12S
MERRILL        CLEAR     25  23  93 CALM      30.13S
$$

WIZ013-073-230800-
NORTHEAST WISCONSIN

CITY           SKY/WX    TMP DP  RH WIND       PRES   REMARKS
IRON MOUNTAIN  CLEAR     23  18  81 CALM      30.13R
MARINETTE      CLEAR     30  25  80 N5        30.13R
OCONTO         CLEAR     27  26  96 CALM      30.13S
$$

WIZ017-030-035>037-045-230800-
CENTRAL WISCONSIN

CITY           SKY/WX    TMP DP  RH WIND       PRES   REMARKS
MEDFORD        CLEAR     29  27  91 CALM      30.12S
WAUSAU         CLEAR     31  26  82 NW3       30.12R
MOSINEE        CLEAR     34  28  80 CALM      30.14R
MARSHFIELD     CLEAR     34  25  69 CALM      30.12S
WISC RAPIDS    CLEAR     30  25  81 CALM      30.14R
STEVENS POINT  CLEAR     26  23  86 CALM      30.14R
WAUPACA        CLEAR     36  27  69 CALM      30.14R
SHAWANO        CLEAR     31  28  88 CALM      30.14R
CLINTONVILLE   CLEAR     30  27  86 CALM      30.13S
$$

WIZ038-039-048-051-230800-
FOX VALLEY

CITY           SKY/WX    TMP DP  RH WIND       PRES   REMARKS
NWS GREEN BAY  CLEAR     32  28  85 W5        30.14R
APPLETON       CLEAR     32  27  80 N3        30.13R
OSHKOSH        CLEAR     38  27  64 NE5       30.12S
FOND DU LAC    CLEAR     37  27  67 NE3       30.13R
$$

WIZ022-050-052-230800-
EAST CENTRAL WISCONSIN

CITY           SKY/WX    TMP DP  RH WIND       PRES   REMARKS
STURGEON BAY   CLEAR     28  25  86 CALM      30.13S
MANITOWOC      CLEAR     33  27  78 NW5       30.13R
SHEBOYGAN      CLEAR     30  29  96 W3        30.12S
$$

LMZ563-521-522-541>543-230800-
LAKESHORE

STATION/POSITION TIME  TEMP    WIND        PRES    VSBY  WAVE
                       AIR SEA DIR/SP/G                  HT/PER
                 (UTC) (F)     (DEG/KT/KT) (MB)    (MI)  (FT/S)
SHEBOYGAN LKSHOR 0700   37     360/  8/  9 1020.7F
KEWAUNEE LKSHORE 0700   34     350/  5/  8 1020.7F
NORTHPORT PIER   0700   31     310/  7/ 12 1020.0S
SISTER BAY LKSHO 0600   31     360/  7/ 10   N/A
MENOMINEE LKSHOR 0700   31     320/  6/  7 1020.8R
$$



USA.gov is the U.S. government's official web portal to all federal, state and local government web resources and services.